Theta_e
348 349 349 349 349 348 349 348 347 346 347 348 349 349 350 350 350 351 351 351 352 351 351 351 353 353 352 352 352 352 352 352 352 352 352 352 352 351 351 351 351 351 351 351 350 351 351 351 350 349 350 349 349 349 348 348 349 349 350 350 348 347 348
348 348 349 350 350 348 348 348 346 346 347 347 349 349 349 350 350 351 351 352 352 351 352 352 352 353 353 353 353 352 353 353 352 352 352 352 352 352 352 351 351 351 351 351 350 351 351 351 350 349 350 350 349 349 348 348 348 349 350 350 350 349 349
346 347 348 349 350 350 349 348 347 347 347 347 348 349 349 349 350 351 351 352 351 352 352 352 352 353 353 353 353 353 353 353 353 352 352 352 352 351 351 351 351 351 351 351 351 350 351 350 350 350 350 350 350 348 348 348 348 349 350 351 351 350 349
346 346 347 348 349 350 350 349 348 347 347 347 348 349 349 349 350 351 351 351 352 351 352 352 352 352 353 353 353 353 353 353 353 353 352 352 352 351 352 351 352 352 351 351 351 350 350 350 349 350 350 350 349 349 348 348 348 348 349 350 351 351 350
346 345 347 347 349 349 349 350 348 347 347 347 347 348 348 349 350 351 351 351 352 352 352 352 352 353 352 353 353 353 353 353 353 353 352 352 352 352 352 352 352 352 351 351 351 350 350 349 349 349 349 350 350 349 349 349 348 348 348 350 351 352 351
345 345 347 347 347 349 349 349 348 347 347 348 347 348 348 349 350 350 352 351 351 351 352 352 352 352 352 353 353 353 353 353 353 352 353 352 352 352 351 352 352 352 351 351 351 351 350 350 349 348 348 349 349 350 349 349 349 349 349 350 351 351 352
345 345 346 346 347 348 348 348 348 347 347 348 347 348 349 348 350 350 351 352 351 352 352 352 352 353 353 353 353 353 353 353 353 352 352 352 352 352 352 352 351 351 352 351 351 351 351 350 349 348 348 348 349 349 348 349 348 349 349 350 351 352 352
346 346 345 346 347 347 348 348 348 348 348 347 347 348 348 348 349 350 351 352 352 352 352 352 352 352 353 353 353 353 353 353 353 353 353 353 352 352 352 352 352 351 351 351 351 351 351 350 350 349 349 348 348 348 348 348 348 349 349 350 351 352 352
344 345 344 346 345 345 348 348 348 349 348 348 348 348 348 349 349 350 350 350 351 352 352 352 352 352 353 353 353 353 353 353 353 353 353 352 352 352 352 352 352 352 352 351 351 351 351 351 350 350 350 349 349 348 348 348 348 349 349 349 351 351 351
344 345 345 346 346 347 348 348 349 350 348 348 348 348 348 349 349 349 350 351 351 352 352 352 352 352 352 353 353 353 353 353 353 353 352 353 352 352 352 352 352 352 351 351 351 351 350 351 350 351 351 351 350 350 348 349 349 349 349 349 350 351 351
343 345 345 346 346 347 349 350 352 352 350 348 348 348 348 348 349 349 350 350 350 351 352 352 352 352 352 352 353 353 353 353 353 353 353 353 352 352 352 352 352 352 352 352 351 351 351 350 351 351 351 351 351 351 349 349 350 350 350 350 350 351 351
341 345 346 346 347 348 350 352 354 353 351 349 348 349 348 348 349 349 349 350 350 350 351 351 352 352 352 352 352 353 353 353 353 352 352 352 352 352 352 352 352 352 352 351 351 351 351 351 351 351 351 351 351 351 350 350 350 350 350 351 351 352 352
342 342 345 347 347 349 353 353 354 354 352 349 348 348 348 349 349 349 350 350 350 350 350 351 351 351 351 352 352 352 352 352 353 352 352 352 352 352 352 352 352 351 351 352 351 352 351 351 352 351 351 351 351 351 351 350 351 350 350 351 351 352 352
343 341 343 347 348 350 354 354 354 355 352 349 349 349 349 349 349 349 350 349 349 350 350 351 351 351 351 352 351 352 352 351 352 352 352 352 352 352 351 352 352 351 351 351 351 351 351 351 351 352 351 352 351 351 351 351 351 351 351 351 352 352 352
340 341 342 345 349 351 353 354 355 354 353 351 349 349 349 349 349 349 349 349 350 350 351 350 351 351 351 351 351 351 351 352 352 352 351 352 351 351 351 351 351 351 351 351 351 351 351 351 351 351 352 352 352 352 351 352 352 352 352 352 352 352 353
335 342 343 345 348 350 351 353 354 353 354 353 349 349 350 350 350 350 350 350 350 350 350 351 351 351 351 351 351 351 352 351 352 351 352 351 351 351 351 351 352 351 351 352 352 351 352 352 352 352 352 352 352 352 352 352 352 351 351 352 352 352 353
338 344 345 345 348 350 351 353 354 354 355 354 350 350 350 350 350 351 350 351 351 350 351 350 351 351 351 351 351 351 351 351 351 352 352 352 352 351 351 352 351 352 352 352 352 352 352 352 352 352 352 352 352 353 353 353 353 352 352 352 352 353 353
344 346 346 348 348 351 352 351 353 354 353 351 350 349 350 350 351 351 351 351 351 351 351 351 351 351 351 352 351 351 352 351 351 352 352 352 352 351 352 352 352 352 352 352 352 352 352 352 352 352 352 352 352 352 353 353 353 353 353 353 353 353 353
348 347 346 349 350 351 352 351 352 353 351 349 349 349 350 350 351 351 351 352 352 352 352 352 352 351 352 352 352 352 352 352 352 352 353 352 353 353 353 353 352 353 352 352 353 353 353 353 352 352 352 352 352 352 352 352 352 352 353 353 353 353 354
348 348 347 350 350 350 352 351 352 350 349 349 349 349 350 351 352 352 352 353 352 353 353 353 353 353 353 352 352 353 352 353 352 352 353 353 353 353 353 353 353 353 353 353 353 353 353 353 353 353 353 353 352 352 351 352 352 351 352 352 352 352 353
354 351 352 352 351 351 353 354 354 351 349 349 350 350 351 351 352 352 352 353 353 354 354 354 354 353 354 353 353 353 353 353 354 353 353 353 353 353 354 353 353 353 353 354 353 354 353 353 353 353 353 353 353 353 352 352 352 351 351 351 351 351 352
362 355 354 353 353 355 354 353 352 350 350 349 349 350 350 351 352 352 353 354 354 354 354 354 355 354 354 355 354 354 354 354 354 354 354 354 354 354 354 353 354 353 354 354 354 353 354 353 354 354 353 353 353 353 352 352 352 352 351 351 351 351 351
360 359 357 353 351 350 348 347 348 349 350 350 350 350 350 351 352 352 353 353 354 355 355 355 356 356 355 355 355 355 355 354 355 355 355 355 354 354 354 354 354 354 354 354 354 354 354 354 353 353 353 353 353 353 353 352 352 352 352 352 351 351 351
356 358 359 356 351 346 345 347 349 350 350 349 350 350 350 351 352 353 353 354 354 355 356 356 356 356 356 356 356 356 356 355 355 356 355 355 355 355 355 355 355 355 354 354 354 354 354 354 354 354 354 353 353 353 353 353 352 353 352 352 352 352 352
353 355 356 355 354 351 349 349 350 350 351 350 349 350 350 351 352 353 353 354 355 355 356 356 356 356 357 357 357 357 356 356 357 356 356 356 356 356 356 356 356 356 355 355 355 355 355 355 354 354 354 354 353 353 353 353 353 353 353 353 353 352 352
352 354 354 354 355 355 354 354 353 353 353 352 351 350 351 351 352 353 354 355 355 356 356 356 357 356 358 357 358 358 357 357 358 357 357 357 357 356 356 356 356 356 356 356 356 355 355 355 355 355 354 354 354 354 353 353 353 353 353 353 353 352 352
349 351 353 353 354 355 356 356 357 357 357 357 355 351 350 351 352 353 355 354 355 356 356 357 357 357 357 358 358 359 359 359 358 358 358 358 358 358 357 357 357 357 357 357 357 356 356 356 356 356 355 355 355 354 354 354 354 354 353 353 353 353 352
346 348 350 351 352 352 353 354 355 356 358 360 360 355 351 352 354 355 356 355 355 357 357 357 357 357 358 359 358 359 359 359 359 359 359 359 359 359 359 358 358 358 358 357 357 357 357 356 356 356 356 356 355 355 354 355 354 354 354 353 354 353 352
343 345 347 349 349 349 349 350 351 352 355 358 361 359 356 357 358 358 358 358 359 360 360 359 359 358 358 358 358 359 360 360 361 360 360 361 360 360 359 359 359 358 359 358 358 357 357 357 357 357 356 356 356 355 355 355 354 355 354 354 354 354 353
340 343 345 347 348 348 347 347 348 349 351 354 358 359 359 359 360 358 358 360 362 363 363 363 362 362 361 359 359 359 359 361 361 361 361 361 361 361 361 361 360 360 359 359 358 358 358 358 357 357 357 356 356 356 356 355 355 355 355 355 355 355 355
338 340 343 344 347 347 346 347 348 348 349 352 354 357 359 359 359 358 357 359 361 362 363 364 364 365 366 364 362 360 359 359 360 362 362 362 362 362 362 362 361 361 360 360 359 358 358 358 357 357 357 356 356 356 356 356 356 355 355 355 355 355 355
335 338 341 343 346 346 345 347 347 348 348 350 352 355 357 358 359 358 358 358 359 360 361 362 362 363 365 365 367 365 363 360 359 360 362 363 363 363 363 362 362 361 360 360 360 359 359 358 358 357 357 356 357 356 356 356 356 356 356 356 356 355 356
334 335 338 341 344 346 345 345 346 346 346 347 349 352 355 357 357 358 358 358 358 358 359 359 360 362 363 364 366 367 366 364 361 359 360 360 361 362 363 363 363 362 361 360 360 359 359 358 357 357 357 356 357 357 357 356 357 357 357 357 356 357 357
333 333 336 339 343 345 345 344 344 345 344 345 348 350 353 355 355 356 357 357 358 359 360 360 359 362 363 365 365 367 367 365 362 360 358 359 360 362 362 362 362 362 361 361 360 360 359 359 358 358 357 358 357 357 357 357 357 357 358 358 358 358 359
333 332 334 337 340 344 345 344 343 344 343 344 347 351 353 354 355 356 357 357 359 360 361 361 362 363 364 364 367 368 365 362 362 360 359 358 359 358 359 360 361 361 362 361 361 361 360 360 360 359 359 359 358 358 359 359 359 360 360 359 360 360 360
332 332 332 335 339 342 345 344 343 344 343 344 348 352 353 354 356 357 358 359 360 361 361 362 363 363 364 366 367 366 364 363 362 361 359 357 356 354 354 355 357 360 361 361 361 361 361 361 361 361 361 360 360 360 360 360 360 361 361 361 361 361 361
332 332 332 334 337 340 342 343 343 343 343 344 348 351 353 354 355 357 357 358 358 359 360 362 362 362 363 366 367 367 365 363 362 359 357 356 355 355 353 353 354 357 360 360 361 361 362 362 362 362 362 362 362 361 360 360 361 362 362 361 361 361 360
330 332 332 333 335 337 339 342 343 342 342 345 348 351 352 353 354 355 356 356 356 357 358 360 360 360 361 364 367 367 365 363 359 356 354 353 353 355 355 354 352 350 352 357 360 361 362 363 363 364 364 364 364 363 361 360 359 360 360 359 359 358 357
Wind_Speed
16 16 16 14 14 15 16 17 19 23 27 29 31 34 36 37 38 37 37 39 40 39 39 40 39 39 39 40 40 39 38 36 35 35 35 34 34 33 32 32 32 32 32 32 32 31 30 28 27 27 27 26 25 24 23 21 19 18 17 17 17 17 16
15 15 15 14 14 16 17 17 20 23 26 29 31 33 36 37 38 39 38 39 40 40 40 40 40 39 40 40 39 39 38 37 36 35 35 34 34 34 33 33 33 32 32 32 32 31 31 29 28 27 27 27 27 26 24 23 21 20 19 18 18 18 18
15 15 15 15 15 16 17 16 20 25 28 30 32 34 37 39 40 41 40 39 40 39 39 40 40 40 40 39 38 39 39 38 37 36 35 35 35 35 34 33 33 32 32 32 32 31 31 31 30 29 28 27 27 26 26 24 23 22 21 20 19 19 19
16 17 17 17 17 17 16 16 19 25 30 33 35 37 38 39 40 40 39 39 39 39 39 40 41 40 40 39 38 38 39 38 38 38 37 37 36 34 33 33 33 32 32 32 32 32 32 31 31 30 29 28 27 27 27 26 25 24 23 22 21 20 20
16 17 16 16 16 15 14 15 18 24 29 32 35 36 37 38 38 38 39 39 40 40 41 41 40 40 39 39 38 38 38 39 38 38 37 36 34 33 33 33 33 33 34 33 33 32 32 31 32 31 31 30 29 28 28 28 27 26 25 24 23 22 21
14 15 15 15 15 14 15 16 20 27 30 32 34 35 35 36 36 37 38 38 38 39 39 39 39 39 38 38 38 36 36 37 37 38 37 35 34 33 34 34 34 34 34 33 33 32 31 31 32 32 32 32 31 30 29 29 29 28 27 26 25 24 22
13 14 15 16 16 15 17 17 21 28 31 30 31 31 32 34 36 37 37 37 38 38 38 38 39 38 38 37 37 36 35 36 37 37 37 35 34 34 35 34 34 34 33 32 32 32 32 32 32 32 32 32 32 31 30 30 29 29 28 27 26 25 24
14 15 16 17 17 17 17 17 19 24 28 27 27 29 33 35 36 36 37 37 37 37 38 39 39 38 38 37 37 37 37 37 37 37 37 36 35 35 35 34 34 34 32 32 33 33 32 33 33 32 32 32 32 31 31 31 30 29 28 28 27 26 25
15 15 16 17 17 17 16 17 18 21 25 28 30 32 34 35 35 36 37 37 37 37 38 39 39 39 39 38 38 39 38 37 37 37 37 37 36 36 36 35 34 33 32 33 33 33 33 33 33 33 33 32 33 32 32 32 31 30 29 29 28 27 27
13 14 16 16 16 15 15 14 14 16 19 24 28 29 31 33 34 35 36 36 37 38 39 39 39 39 38 38 38 38 38 37 36 37 37 38 37 37 37 36 34 33 33 33 33 33 34 34 33 33 33 33 34 34 34 33 32 31 31 30 29 29 28
12 14 14 15 15 15 14 13 13 13 15 21 26 28 30 32 33 34 36 37 38 38 39 39 38 38 38 38 38 37 36 37 36 36 37 38 38 38 38 36 34 33 33 33 33 33 33 33 33 33 33 34 35 35 35 35 34 33 32 32 31 30 30
11 12 14 15 16 15 14 14 14 15 16 20 26 28 30 32 33 34 35 37 38 38 38 38 37 36 37 37 36 35 36 37 36 37 38 38 38 37 37 36 35 34 33 33 33 32 32 32 32 33 34 35 36 36 36 35 35 34 33 32 31 31 31
11 12 14 15 14 14 14 14 16 17 17 21 26 29 30 32 33 34 35 36 37 37 36 36 36 36 36 36 36 35 36 37 37 38 38 38 38 37 36 36 36 35 34 34 33 32 32 32 32 33 34 35 36 36 36 35 34 34 33 32 32 32 31
13 14 14 13 13 14 16 16 17 17 17 20 25 28 29 31 32 34 34 35 35 35 35 36 36 36 36 36 35 36 37 38 38 38 38 37 38 37 37 36 36 36 35 34 33 33 34 33 33 33 34 35 36 36 35 34 34 34 34 33 33 32 32
14 16 15 14 14 16 17 17 17 17 18 19 23 26 27 28 30 31 32 33 34 35 35 36 36 36 36 35 36 37 37 37 37 37 37 37 37 37 37 36 36 36 35 34 34 34 34 34 34 33 33 34 34 35 34 34 34 35 35 34 33 33 33
15 16 15 15 16 16 17 18 18 18 17 17 20 25 26 27 29 31 32 33 34 35 36 36 36 36 35 35 36 37 37 36 36 36 36 37 37 37 37 36 35 35 34 35 35 35 34 34 34 34 34 34 34 34 33 34 35 37 36 35 34 33 33
14 15 15 15 17 16 17 17 16 16 17 17 21 26 28 28 30 32 31 32 34 35 35 36 36 35 36 36 37 36 36 35 35 35 36 36 36 36 36 35 35 34 35 35 35 35 34 34 34 35 35 34 34 34 33 34 36 37 36 36 35 34 33
13 15 15 16 16 15 15 15 16 17 17 18 22 26 28 28 29 29 31 33 34 34 34 35 35 35 35 36 36 35 35 35 34 34 35 35 36 36 36 35 34 35 35 35 35 35 35 35 35 36 35 34 34 34 34 35 36 36 36 36 35 34 33
10 12 15 16 16 15 16 15 16 18 19 20 25 30 31 32 32 32 33 34 33 33 33 33 33 33 34 34 34 34 34 34 34 34 35 36 36 36 35 35 35 35 35 35 36 35 35 36 36 36 36 35 35 35 35 36 36 36 36 36 36 35 34
8 8 9 11 13 14 15 14 14 16 20 25 28 30 32 32 30 29 29 30 31 31 32 32 31 31 32 33 33 34 34 34 35 35 36 36 36 36 36 36 36 36 36 35 35 34 35 36 36 36 36 36 36 36 35 36 37 37 36 36 36 35 34
6 7 7 7 10 12 12 13 12 13 17 23 25 26 27 27 26 25 27 29 31 31 31 31 31 31 33 33 34 34 34 35 35 36 36 36 36 35 36 36 36 36 36 35 35 35 36 36 36 36 36 37 36 36 36 37 37 36 36 37 36 34 33
2 6 8 8 9 10 11 12 14 16 19 22 25 26 26 26 26 27 28 30 30 30 31 31 31 32 33 33 33 34 35 35 35 35 35 35 35 34 34 35 35 36 35 35 34 35 35 35 35 36 37 36 36 35 36 38 38 37 37 37 35 34 33
6 2 6 7 7 8 10 14 17 19 22 24 26 27 27 27 28 28 27 28 28 29 30 30 31 32 32 33 33 35 36 36 36 36 35 34 33 33 34 35 36 36 36 34 34 34 35 35 35 36 36 36 35 36 37 38 37 36 37 36 34 33 33
10 7 5 7 10 12 15 18 21 22 25 25 24 25 28 28 28 28 26 26 27 28 28 29 30 31 31 33 34 35 36 37 37 37 35 34 34 35 35 36 36 37 36 35 35 36 37 36 35 36 36 36 36 37 37 37 37 36 36 36 35 34 33
12 11 9 8 9 12 17 22 24 24 25 25 24 26 29 30 29 27 25 25 27 27 26 28 30 31 32 34 35 36 37 37 37 37 35 35 36 37 37 37 37 37 35 35 36 36 35 34 34 34 35 36 37 36 36 36 37 37 37 36 35 34 34
12 12 11 12 12 12 16 21 22 21 21 23 26 29 32 32 30 27 25 25 26 25 26 29 32 33 34 35 34 35 35 36 36 36 36 36 37 38 38 37 36 35 33 34 35 34 33 32 33 33 35 35 35 35 35 36 37 37 37 36 35 34 33
15 15 15 15 16 15 16 17 17 17 16 19 25 30 32 32 28 24 24 25 24 25 28 32 33 33 34 34 32 33 34 35 36 37 37 38 38 37 36 36 35 33 33 33 34 32 31 31 31 32 33 33 33 34 34 35 36 36 36 35 34 33 33
16 17 17 18 19 18 16 16 17 17 15 15 21 27 30 29 25 21 22 22 21 24 27 29 31 32 33 33 32 32 33 34 35 36 37 38 37 35 34 35 34 34 33 32 31 30 31 31 30 30 31 31 31 32 33 33 34 35 35 34 34 32 32
15 15 14 15 17 17 15 14 15 17 17 16 19 23 27 27 22 20 20 18 17 20 22 23 26 28 29 30 30 31 32 34 35 36 36 36 36 35 35 35 33 32 32 31 30 29 29 30 29 28 28 28 29 30 31 31 32 33 33 33 32 31 31
16 15 13 14 16 18 17 14 14 17 19 19 21 22 25 27 25 22 20 18 17 18 18 18 19 21 24 28 30 32 32 34 35 37 37 37 36 35 34 33 31 31 31 31 30 28 27 27 27 26 25 26 27 28 29 30 31 31 31 30 30 30 29
15 15 15 15 17 18 17 15 15 17 18 20 22 23 24 26 26 22 18 16 17 17 16 15 15 14 15 19 25 30 33 33 34 35 36 36 35 34 33 32 30 30 30 30 29 28 26 26 25 25 25 24 25 26 28 29 30 30 29 28 28 28 27
14 16 17 16 16 16 16 16 16 16 17 18 20 22 23 24 24 22 18 16 15 15 13 12 11 10 9 9 11 17 24 29 31 32 32 32 31 32 33 32 31 30 29 28 28 27 26 25 24 23 23 23 23 25 26 27 28 28 27 26 26 26 26
13 14 15 16 16 16 15 15 14 14 15 15 16 19 22 22 22 20 18 16 14 12 10 10 9 7 7 5 4 7 13 20 25 27 27 27 26 28 29 30 30 28 27 26 26 25 24 23 22 22 22 22 23 24 25 25 25 25 25 25 25 24 24
11 13 16 18 18 16 15 13 12 12 12 12 13 16 19 19 18 17 16 15 13 11 9 8 7 6 5 4 3 5 9 13 17 21 22 21 22 23 23 24 25 26 26 27 27 25 24 24 23 24 24 24 24 23 22 22 22 23 24 24 24 23 22
11 13 16 18 18 15 13 12 11 11 11 10 13 17 17 17 16 15 15 14 12 10 10 9 7 6 4 2 2 4 7 10 13 16 18 18 18 18 17 17 20 22 23 25 26 26 26 25 25 26 26 25 24 22 20 20 22 23 23 22 21 20 20
12 14 16 18 18 17 14 11 10 11 10 10 14 17 18 17 16 15 15 14 12 11 10 9 9 8 6 4 4 5 9 12 14 17 18 19 18 17 14 12 13 16 18 20 21 22 23 24 24 25 25 23 22 21 21 21 21 20 19 19 18 18 17
11 13 15 16 16 16 15 13 10 10 10 10 14 17 17 17 17 16 15 14 12 11 10 9 10 10 8 7 6 8 12 15 17 18 20 20 20 19 17 14 11 10 12 13 14 16 18 19 19 19 19 19 20 19 19 18 17 15 15 15 15 15 14
12 13 16 16 15 14 15 13 9 7 8 10 13 15 16 16 16 15 14 13 11 11 10 11 12 11 10 9 9 11 13 16 18 19 19 20 20 20 20 19 17 14 10 8 9 11 13 14 14 13 13 14 15 15 14 13 12 11 12 13 14 14 13
Wind_Direction
197 200 199 198 195 193 195 195 193 192 193 195 195 194 195 195 196 196 197 198 199 200 200 200 201 201 202 204 207 208 209 210 210 211 213 215 218 219 220 222 223 225 226 227 231 233 235 237 238 240 241 243 244 244 246 249 251 253 254 254 251 249 249
195 201 199 197 196 197 198 195 192 192 193 195 195 195 195 195 195 196 197 198 199 200 200 200 201 202 203 205 206 207 209 209 210 211 212 215 218 220 221 223 224 226 227 229 232 234 236 238 239 241 243 245 246 245 246 248 251 253 254 255 253 250 249
194 199 198 197 198 198 197 192 191 193 194 194 194 195 197 197 196 196 196 197 198 200 200 200 202 203 204 205 206 207 209 209 210 210 212 215 217 219 221 223 225 227 228 230 233 236 238 239 240 242 244 246 246 245 245 248 251 253 254 255 255 253 251
192 196 196 197 199 198 195 192 192 194 195 196 195 196 197 197 197 197 197 197 197 198 199 201 202 203 205 205 206 208 208 209 210 211 213 215 217 218 219 222 224 226 229 231 233 236 239 240 242 242 244 245 246 245 245 247 251 253 254 255 255 255 254
192 194 194 197 200 198 193 193 194 195 197 197 196 196 196 196 196 196 198 198 198 199 200 201 202 203 205 206 206 208 209 209 210 212 213 215 215 216 218 221 223 225 229 232 234 236 238 241 242 243 244 245 245 245 246 248 250 253 255 255 255 255 255
192 191 193 197 199 196 193 194 196 196 197 196 195 195 194 193 194 196 197 198 198 200 200 201 202 203 204 205 207 208 209 209 210 211 213 214 214 215 218 221 223 225 228 230 233 235 237 240 242 243 244 245 245 245 246 248 249 251 253 254 255 255 256
191 190 194 198 196 194 194 195 196 196 196 195 192 192 191 192 194 195 196 197 198 198 198 199 201 202 203 204 206 207 208 209 210 211 213 213 214 216 219 221 223 225 227 229 232 234 236 238 241 242 244 245 245 246 247 249 250 251 251 252 253 255 256
193 193 196 198 197 195 195 195 195 193 190 187 187 188 190 192 193 193 195 196 197 197 197 198 199 200 202 203 205 207 208 209 210 211 212 213 214 217 219 221 223 225 226 227 231 233 235 237 239 241 242 244 245 247 248 250 251 251 250 251 252 254 255
195 195 199 200 198 196 196 195 192 186 181 182 186 189 190 191 191 193 194 195 196 196 198 198 198 199 201 202 204 206 208 208 209 210 211 212 214 217 219 221 223 224 225 227 229 231 234 236 237 239 240 242 244 247 249 250 251 251 250 251 252 253 254
199 198 201 201 198 198 198 192 183 178 179 182 186 188 189 189 191 192 193 194 195 197 198 198 198 199 199 201 204 205 206 207 208 209 210 212 214 216 219 221 222 223 225 227 228 231 233 235 236 237 238 240 241 244 247 249 249 250 250 251 252 253 254
207 204 202 199 197 196 191 180 175 178 180 183 184 186 187 188 190 191 192 193 195 197 198 198 197 197 198 201 203 204 205 206 207 208 209 211 213 216 219 220 221 222 224 226 227 229 232 232 233 234 236 238 239 242 244 246 247 248 249 250 251 253 254
213 209 205 201 196 190 184 178 178 181 180 182 184 185 186 187 189 190 191 193 195 196 197 196 197 197 198 200 201 202 204 205 207 208 210 211 213 216 218 219 220 221 223 224 226 227 229 230 231 232 234 237 239 240 242 244 246 247 248 249 250 251 253
214 211 207 202 192 183 180 180 181 181 180 182 184 184 185 186 187 188 190 192 195 195 195 195 195 196 198 200 201 203 204 206 207 209 210 212 214 215 217 218 220 221 222 224 225 226 228 229 230 232 234 236 238 239 240 242 243 246 247 248 249 249 251
213 212 207 199 188 181 181 182 182 182 180 181 182 183 185 186 187 188 189 191 192 192 193 193 194 195 197 199 201 203 205 207 208 210 211 212 214 215 217 218 219 221 222 223 224 226 228 229 231 233 234 236 238 239 240 240 242 244 245 246 246 247 248
212 209 203 192 185 182 183 183 182 181 181 180 179 180 182 184 185 186 187 189 189 191 192 192 192 195 196 198 201 204 206 207 208 210 211 212 214 215 216 217 219 220 221 222 223 226 228 230 232 233 235 237 238 239 240 239 241 243 243 243 243 244 246
212 203 195 188 185 185 185 185 182 180 178 176 176 178 179 180 183 184 186 186 188 190 191 191 191 193 195 198 203 205 206 207 208 209 210 211 213 215 216 217 218 219 220 222 224 226 228 230 232 233 235 237 238 239 238 239 241 242 243 243 242 243 244
204 193 189 188 185 185 185 183 178 174 174 176 178 178 179 181 182 183 184 185 187 189 189 189 190 193 195 199 203 205 205 206 207 208 209 211 213 214 216 217 218 219 220 222 223 225 227 228 231 233 235 236 237 238 238 238 241 242 243 243 243 243 242
195 186 185 187 186 185 182 177 172 173 176 178 179 179 181 180 179 181 183 185 186 187 187 188 190 193 196 200 202 203 204 205 206 207 209 211 212 214 216 217 217 219 221 222 223 225 226 227 229 232 234 235 236 238 238 240 242 242 243 243 243 243 242
195 191 187 185 183 180 177 174 175 177 177 177 179 182 182 179 179 183 185 184 183 183 184 187 190 192 196 199 201 202 203 204 205 207 209 211 213 214 215 216 217 219 221 222 224 225 226 227 229 232 233 234 235 237 238 240 242 243 244 244 244 244 243
196 193 191 187 183 179 177 176 177 177 177 179 181 182 180 180 181 183 181 179 179 181 184 186 188 191 195 198 200 202 203 204 205 207 210 211 212 214 215 215 217 220 221 223 224 225 226 228 230 232 233 234 235 237 239 241 242 244 244 245 246 245 244
193 172 174 184 181 175 173 171 169 171 174 176 176 174 175 177 177 174 174 176 179 181 183 185 187 191 195 198 200 201 202 203 205 208 210 211 212 213 214 216 218 220 221 223 224 225 227 229 230 232 233 235 236 237 239 241 243 244 245 246 247 247 246
255 170 162 170 175 173 170 166 165 165 166 167 167 168 171 173 172 170 173 177 179 180 182 184 188 192 196 199 200 201 202 204 205 208 210 211 211 212 214 216 218 220 221 222 224 226 229 230 231 233 234 235 236 237 240 243 244 244 245 246 247 246 246
351 104 137 140 141 140 143 148 152 154 155 159 164 167 169 170 170 170 172 175 178 179 181 184 190 194 196 199 200 202 203 205 206 208 210 210 210 212 214 216 218 220 220 221 222 225 227 229 231 233 235 236 236 237 239 243 244 244 245 246 245 244 244
14 31 77 115 127 129 131 137 144 150 154 157 162 166 167 167 168 168 170 174 177 179 181 186 193 196 197 200 202 203 204 205 207 209 209 210 210 213 215 217 219 221 220 219 221 224 226 228 231 233 235 236 236 237 239 243 245 246 246 246 245 244 243
20 28 38 61 98 126 137 142 145 151 155 157 160 164 165 166 166 167 170 174 177 179 183 189 195 198 200 203 204 205 206 207 208 209 209 210 212 214 216 218 219 221 220 219 221 225 227 228 229 232 235 236 238 239 239 242 246 247 246 246 245 244 243
22 29 36 43 59 95 125 135 140 147 153 158 162 164 165 166 167 169 172 174 176 180 186 193 198 201 204 206 207 206 207 208 209 210 210 211 214 216 217 218 219 220 219 220 222 224 226 227 228 231 234 236 237 239 239 241 244 246 246 247 246 244 243
24 31 38 43 51 68 92 107 115 123 136 152 160 164 166 168 168 170 171 172 176 184 191 196 201 204 206 208 208 207 208 209 210 211 213 214 216 217 218 219 219 219 218 219 220 222 224 226 227 230 234 236 237 238 239 240 242 245 246 246 246 245 243
21 25 32 40 46 56 71 83 89 93 103 130 152 162 166 165 162 163 167 170 177 187 192 197 201 204 207 209 209 210 209 210 212 213 214 216 216 216 217 219 219 219 219 218 219 220 223 225 226 227 232 235 236 238 239 240 241 244 246 247 246 246 244
16 17 21 28 32 41 57 71 75 76 83 104 130 147 155 152 145 144 148 152 162 174 184 194 200 204 208 210 211 212 211 212 214 215 215 217 216 215 217 218 218 218 218 217 217 218 221 223 224 225 230 233 235 237 239 240 241 243 244 246 247 247 247
16 15 16 18 22 32 47 58 65 70 76 89 106 123 135 135 129 125 128 132 139 148 157 171 184 194 203 209 212 214 214 214 216 216 217 217 215 215 216 217 216 216 216 216 215 216 218 221 221 221 225 229 233 236 238 239 240 242 243 246 247 248 249
13 11 13 16 20 29 42 53 62 67 70 79 92 105 117 123 120 116 116 124 130 132 135 143 151 164 182 198 209 214 215 216 216 216 218 218 215 214 215 214 213 213 213 213 213 213 216 218 219 219 221 225 229 234 237 239 240 242 243 245 247 249 251
7 10 12 13 16 27 42 55 61 63 64 69 81 94 102 109 111 109 110 117 121 123 128 133 136 142 150 166 194 209 214 216 217 217 218 218 215 214 214 214 212 211 212 211 210 212 214 216 217 217 219 223 228 232 236 238 239 241 243 243 245 247 249
1 5 7 8 13 24 42 53 55 56 58 60 71 86 94 98 100 101 104 107 109 113 121 125 129 139 145 152 173 198 208 215 218 219 219 218 216 214 215 214 212 211 210 208 207 209 212 214 215 215 216 221 226 230 234 236 237 238 240 240 241 242 244
357 1 4 7 12 23 39 47 51 57 60 60 70 83 90 94 97 99 100 100 102 110 117 120 127 136 144 162 183 189 198 207 214 215 215 214 213 212 212 212 211 210 210 210 209 208 208 210 212 214 215 219 223 227 230 233 235 237 238 239 239 239 240
350 1 5 5 7 18 35 44 52 61 63 66 78 84 85 87 91 95 98 98 101 108 111 113 119 125 131 146 156 168 181 189 196 200 198 194 194 195 198 203 206 207 210 214 214 212 212 213 215 218 221 221 222 224 225 228 235 240 241 240 239 237 238
349 358 3 6 8 14 25 38 53 62 61 67 78 83 83 83 85 88 90 90 91 94 99 107 110 105 103 109 124 148 165 170 176 181 180 177 175 172 170 177 192 199 204 210 213 215 217 219 222 227 228 224 222 224 226 231 238 242 240 236 234 232 233
356 354 356 4 10 8 8 17 41 56 58 67 77 81 81 81 82 83 82 81 81 82 85 94 99 93 89 99 125 153 163 164 165 168 170 170 169 165 157 147 147 166 186 197 202 207 211 216 222 227 229 226 224 223 223 227 234 236 230 224 219 216 213
4 360 357 1 7 7 0 358 10 37 58 72 79 81 81 79 78 78 76 74 75 78 81 86 91 91 92 106 133 156 164 163 161 162 162 162 162 162 158 146 129 116 120 151 181 193 200 206 209 211 213 215 219 220 216 215 216 211 202 195 191 187 180